Time,TemperatureF,DewpointF,PressureIn,WindDirection,WindDirectionDegrees,WindSpeedMPH,WindSpeedGustMPH,Humidity,HourlyPrecipIn,Conditions,Clouds,dailyrainin,SoftwareType,DateUTC
2013-08-30 00:15:00,63.1,60.4,29.75,NE,41,0.0,0.0,91,0.00,,,0.00,Wunderground v.1.12,2013-08-30 04:15:00,
2013-08-30 00:45:00,63.2,60.5,29.75,NE,40,0.0,0.0,91,0.00,,,0.00,Wunderground v.1.12,2013-08-30 04:45:00,
2013-08-30 01:15:00,62.7,60.0,29.74,NE,41,0.0,0.0,91,0.00,,,0.00,Wunderground v.1.12,2013-08-30 05:15:00,
2013-08-30 01:45:00,62.4,59.7,29.74,NE,40,0.0,0.0,91,0.00,,,0.00,Wunderground v.1.12,2013-08-30 05:45:00,
2013-08-30 02:15:00,62.2,59.5,29.73,NE,40,0.0,0.0,91,0.00,,,0.00,Wunderground v.1.12,2013-08-30 06:15:00,
2013-08-30 02:45:00,62.5,60.1,29.72,NE,41,0.0,0.0,92,0.00,,,0.00,Wunderground v.1.12,2013-08-30 06:45:00,
2013-08-30 03:15:00,62.5,59.8,29.72,NE,40,0.0,0.0,91,0.00,,,0.00,Wunderground v.1.12,2013-08-30 07:15:00,
2013-08-30 03:45:00,62.2,59.8,29.72,NE,41,0.0,0.0,92,0.00,,,0.00,Wunderground v.1.12,2013-08-30 07:45:00,
2013-08-30 04:15:00,61.8,59.5,29.71,NE,40,0.0,0.0,92,0.00,,,0.00,Wunderground v.1.12,2013-08-30 08:15:00,
2013-08-30 04:45:00,62.0,59.6,29.71,NE,40,0.0,0.0,92,0.00,,,0.00,Wunderground v.1.12,2013-08-30 08:45:00,
2013-08-30 05:15:00,62.3,59.9,29.70,NE,40,0.0,0.0,92,0.00,,,0.00,Wunderground v.1.12,2013-08-30 09:15:00,
2013-08-30 05:45:00,62.4,60.0,29.70,NE,41,0.0,0.0,92,0.00,,,0.00,Wunderground v.1.12,2013-08-30 09:45:00,
2013-08-30 06:15:00,62.4,60.0,29.70,NE,40,0.0,0.0,92,0.00,,,0.00,Wunderground v.1.12,2013-08-30 10:15:00,
2013-08-30 06:45:00,62.6,60.2,29.71,NE,41,0.0,0.0,92,0.00,,,0.00,Wunderground v.1.12,2013-08-30 10:45:00,
2013-08-30 07:15:00,63.0,60.6,29.70,NE,42,0.0,0.0,92,0.00,,,0.00,Wunderground v.1.12,2013-08-30 11:15:00,
2013-08-30 07:45:00,64.7,62.3,29.70,NE,44,0.0,0.0,92,0.00,,,0.00,Wunderground v.1.12,2013-08-30 11:45:00,
2013-08-30 08:15:00,66.3,63.9,29.69,WNW,294,1.0,1.0,92,0.00,,,0.00,Wunderground v.1.12,2013-08-30 12:15:00,
2013-08-30 08:45:00,67.4,64.4,29.69,West,268,4.0,4.0,90,0.00,,,0.00,Wunderground v.1.12,2013-08-30 12:45:00,
2013-08-30 09:15:00,68.9,65.5,29.68,West,266,0.0,0.0,89,0.00,,,0.00,Wunderground v.1.12,2013-08-30 13:15:00,
2013-08-30 09:45:00,71.8,67.4,29.68,SW,235,11.0,11.0,86,0.00,,,0.00,Wunderground v.1.12,2013-08-30 13:45:00,
2013-08-30 10:15:00,74.8,68.2,29.67,SSW,202,0.0,0.0,80,0.00,,,0.00,Wunderground v.1.12,2013-08-30 14:15:00,
2013-08-30 10:45:00,77.4,68.9,29.66,West,272,4.0,4.0,75,0.00,,,0.00,Wunderground v.1.12,2013-08-30 14:45:00,
2013-08-30 11:15:00,76.9,68.8,29.66,SSW,193,0.0,0.0,76,0.00,,,0.00,Wunderground v.1.12,2013-08-30 15:15:00,
2013-08-30 11:45:00,79.9,68.8,29.64,West,265,7.0,7.0,69,0.00,,,0.00,Wunderground v.1.12,2013-08-30 15:45:00,
2013-08-30 12:15:00,83.6,70.1,29.63,West,278,7.0,7.0,64,0.00,,,0.00,Wunderground v.1.12,2013-08-30 16:15:00,
2013-08-30 12:45:00,84.3,68.4,29.62,West,265,10.0,10.0,59,0.00,,,0.00,Wunderground v.1.12,2013-08-30 16:45:00,
2013-08-30 13:15:00,84.9,69.9,29.60,West,267,4.0,4.0,61,0.00,,,0.00,Wunderground v.1.12,2013-08-30 17:15:00,
2013-08-30 13:45:00,82.6,67.8,29.60,West,259,5.0,5.0,61,0.00,,,0.00,Wunderground v.1.12,2013-08-30 17:45:00,
2013-08-30 14:15:00,83.5,67.7,29.60,WSW,255,0.0,0.0,59,0.00,,,0.00,Wunderground v.1.12,2013-08-30 18:15:00,
2013-08-30 14:45:00,80.8,66.6,29.58,WSW,245,10.0,10.0,62,0.00,,,0.00,Wunderground v.1.12,2013-08-30 18:45:00,
2013-08-30 15:15:00,79.0,65.8,29.58,West,260,7.0,7.0,64,0.00,,,0.00,Wunderground v.1.12,2013-08-30 19:15:00,
2013-08-30 15:45:00,79.1,65.9,29.58,West,276,7.0,7.0,64,0.00,,,0.00,Wunderground v.1.12,2013-08-30 19:45:00,
2013-08-30 16:15:00,78.0,66.6,29.58,West,271,0.0,0.0,68,0.00,,,0.00,Wunderground v.1.12,2013-08-30 20:15:00,
2013-08-30 16:45:00,77.8,66.0,29.57,SSW,210,0.0,0.0,67,0.00,,,0.00,Wunderground v.1.12,2013-08-30 20:45:00,
2013-08-30 17:15:00,76.6,65.7,29.54,West,270,2.0,9.0,69,0.00,,,0.00,Wunderground v.1.12,2013-08-30 21:15:00,
2013-08-30 17:45:00,77.1,66.1,29.54,West,270,1.0,8.0,69,0.00,,,0.00,Wunderground v.1.12,2013-08-30 21:45:00,
2013-08-30 18:15:00,76.1,66.0,29.54,West,272,0.0,0.0,71,0.00,,,0.00,Wunderground v.1.12,2013-08-30 22:15:00,
2013-08-30 18:45:00,74.8,65.6,29.54,SSW,199,0.0,0.0,73,0.00,,,0.00,Wunderground v.1.12,2013-08-30 22:45:00,
2013-08-30 19:15:00,73.7,66.0,29.53,SSW,199,0.0,0.0,77,0.00,,,0.00,Wunderground v.1.12,2013-08-30 23:15:00,
2013-08-30 19:45:00,72.9,66.0,29.53,SSW,199,0.0,0.0,79,0.00,,,0.00,Wunderground v.1.12,2013-08-30 23:45:00,
2013-08-30 20:15:00,72.4,65.9,29.53,SSW,199,0.0,0.0,80,0.00,,,0.00,Wunderground v.1.12,2013-08-31 00:15:00,
2013-08-30 20:45:00,70.9,65.1,29.53,SSW,203,0.0,3.0,82,0.00,,,0.00,Wunderground v.1.12,2013-08-31 00:45:00,
2013-08-30 21:15:00,70.1,64.7,29.53,N/A,-737280,0.0,0.0,83,0.00,,,0.00,Wunderground v.1.12,2013-08-31 01:15:00,
2013-08-30 21:45:00,70.1,64.7,29.53,SSW,202,0.0,0.0,83,0.00,,,0.00,Wunderground v.1.12,2013-08-31 01:45:00,
2013-08-30 22:15:00,70.0,64.9,29.53,SSW,202,0.0,0.0,84,0.00,,,0.00,Wunderground v.1.12,2013-08-31 02:15:00,
2013-08-30 22:45:00,69.6,64.2,29.56,West,275,0.0,0.0,83,0.00,,,0.00,Wunderground v.1.12,2013-08-31 02:45:00,
2013-08-30 23:15:00,67.3,63.3,29.54,West,276,0.0,0.0,87,0.00,,,0.00,Wunderground v.1.12,2013-08-31 03:15:00,
2013-08-30 23:45:00,67.0,63.3,29.54,West,276,0.0,0.0,88,0.00,,,0.00,Wunderground v.1.12,2013-08-31 03:45:00,